カタログに戻る

STARLINK-31690

運用中通信VLEO
NORAD 59581·PAYLOAD·🇺🇸 United States

打ち上げ Apr 23, 2024 から Cape Canaveral Space Force Station

Loading…

次のパス (今後24時間)

TLE

最新Source: CelesTrak SupGP

元期: Sep 14, 2026, 20:59 UTC

1 59581C 24076T   26257.87479167  .00043556  00000+0  15780-2 0  2570
2 59581  43.0031  20.4086 0001621 279.2693 240.4152 15.27548116    18

AllMySatでSTARLINK-31690をリアルタイム追跡

Download on the App Store